M8SEY-13 Weather Reports


time (UTC)temp
F
wind
direction
speed
knots
gust
knots
rain 1hr
in
rain 24hr
in
rain mn
in
humidity
%
barometer
mb
20260507222535 47 0.0 0.0 0.00 0.01 0.01 90 1015.0
20260507221535 47 0.0 0.9 0.00 0.01 0.01 90 1014.9
20260507220515 47 0.0 0.9 0.00 0.01 0.01 89 1014.8
20260507215515 48 0.0 0.0 0.00 0.01 0.01 89 1014.8
20260507214515 48 0.0 0.0 0.00 0.01 0.01 88 1014.8
20260507213515 49 0.0 0.0 0.00 0.01 0.01 87 1014.8
20260507212515 49 0.0 0.0 0.00 0.01 0.01 86 1014.8
20260507211515 49 0.0 0.9 0.00 0.01 0.01 86 1014.8
20260507210515 50 0.0 0.9 0.00 0.01 0.01 85 1014.7
20260507205515 50 0.0 0.9 0.00 0.01 0.01 85 1014.5
20260507204515 51 0.0 0.9 0.00 0.01 0.01 85 1014.5
20260507203515 51 0.0 0.9 0.00 0.01 0.01 85 1014.5
20260507202515 52 0.0 0.0 0.00 0.01 0.01 83 1014.3
20260507201535 52 0.0 0.0 0.00 0.01 0.01 82 1014.3
20260507200515 53 0.0 0.9 0.00 0.01 0.01 82 1014.2
20260507195515 53 0.0 0.9 0.00 0.01 0.01 81 1014.1
20260507194515 53 0.0 0.9 0.00 0.01 0.01 80 1014.1
20260507193517 54 0.0 0.9 0.00 0.01 0.01 80 1014.0
20260507192517 54 113 0.9 1.7 0.00 0.01 0.01 80 1014.0
20260507191517 54 0.0 1.7 0.00 0.01 0.01 81 1014.0
20260507190517 55 0.0 0.0 0.00 0.01 0.01 79 1013.9
20260507185537 56 0.0 0.9 0.00 0.01 0.01 78 1013.9
20260507184515 56 0.0 0.0 0.01 0.01 0.01 77 1013.9
20260507183557 55 0.0 0.0 0.01 0.01 0.01 82 1013.9
20260507182557 55 0.0 0.0 0.01 0.01 0.01 80 1013.9
20260507181517 54 0.0 0.0 0.01 0.01 0.01 79 1013.8
20260507180517 54 0.0 0.0 0.01 0.01 0.01 77 1013.7
20260507175517 55 203 0.9 1.7 0.01 0.01 0.01 76 1013.6
20260507174517 56 0.0 0.9 0.00 0.00 0.00 72 1013.7
20260507173517 56 0.0 1.7 0.00 0.00 0.00 71 1013.7
20260507172517 56 0.0 1.7 0.00 0.00 0.00 68 1013.6
20260507171517 57 203 0.9 2.6 0.00 0.00 0.00 65 1013.6
20260507170517 57 203 0.9 3.5 0.00 0.00 0.00 64 1013.6
20260507165537 58 225 0.9 3.5 0.00 0.00 0.00 64 1013.6
20260507164537 58 203 1.7 5.2 0.00 0.00 0.00 63 1013.7
20260507163517 58 135 1.7 5.2 0.00 0.00 0.00 62 1013.7
20260507162517 58 135 2.6 7.0 0.00 0.00 0.00 61 1013.7
20260507161517 58 158 1.7 4.3 0.00 0.00 0.00 62 1013.7
20260507160537 58 113 1.7 5.2 0.00 0.00 0.00 61 1013.6
20260507155517 58 113 1.7 5.2 0.00 0.00 0.00 60 1013.6
20260507154537 59 203 1.7 5.2 0.00 0.00 0.00 60 1013.7
20260507153517 59 158 1.7 6.1 0.00 0.00 0.00 58 1013.7
20260507152617 59 135 2.6 7.8 0.00 0.00 0.00 57 1013.7
20260507151517 60 135 2.6 7.8 0.00 0.00 0.00 57 1013.8
20260507150517 59 113 1.7 6.1 0.00 0.00 0.00 60 1013.8
20260507145517 58 135 1.7 6.1 0.00 0.00 0.00 62 1013.8
20260507144517 58 135 1.7 6.1 0.00 0.00 0.00 61 1014.1
20260507143537 58 135 1.7 5.2 0.00 0.00 0.00 61 1014.1
20260507142537 58 225 1.7 5.2 0.00 0.00 0.00 59 1014.2
20260507141517 58 135 2.6 8.7 0.00 0.00 0.00 58 1014.3
20260507140516 59 135 2.6 7.0 0.00 0.00 0.00 58 1014.3
20260507135517 59 135 2.6 7.0 0.00 0.00 0.00 60 1014.3
20260507134516 59 135 4.3 9.6 0.00 0.00 0.00 59 1014.3
20260507133517 60 113 1.7 5.2 0.00 0.00 0.00 60 1014.4
20260507132516 60 113 3.5 8.7 0.00 0.00 0.00 59 1014.4
20260507131516 59 203 3.5 8.7 0.00 0.00 0.00 63 1014.5
20260507130517 58 113 2.6 9.6 0.00 0.00 0.00 65 1014.7
20260507125516 58 135 2.6 6.1 0.00 0.00 0.00 64 1014.8
20260507124516 58 113 3.5 12.2 0.00 0.00 0.00 64 1014.7
20260507123516 58 135 2.6 6.1 0.00 0.00 0.00 65 1014.7
20260507122517 57 135 3.5 7.8 0.00 0.00 0.00 64 1014.8
20260507121517 57 113 2.6 7.0 0.00 0.00 0.00 64 1014.8
20260507120517 57 180 2.6 7.8 0.00 0.00 0.00 65 1014.8
20260507115517 56 203 3.5 9.6 0.00 0.00 0.00 68 1014.9
20260507114516 56 113 2.6 7.0 0.00 0.00 0.00 68 1014.9
20260507113536 56 203 3.5 7.8 0.00 0.00 0.00 68 1014.9
20260507112516 55 113 1.7 5.2 0.00 0.00 0.00 70 1015.1
20260507111517 54 203 3.5 7.0 0.00 0.00 0.00 69 1015.0
20260507110516 53 113 2.6 8.7 0.00 0.00 0.00 71 1015.1
20260507105536 53 113 2.6 7.0 0.00 0.00 0.00 73 1015.2
20260507104516 52 113 2.6 6.1 0.00 0.00 0.00 75 1015.2
20260507103556 51 113 2.6 5.2 0.00 0.00 0.00 77 1015.5
20260507102516 51 135 2.6 7.0 0.00 0.00 0.00 78 1015.5
20260507101517 50 113 2.6 6.1 0.00 0.00 0.00 79 1015.5
20260507100516 50 135 2.6 6.1 0.00 0.00 0.00 80 1015.4
20260507095516 49 135 1.7 6.1 0.00 0.00 0.00 81 1015.5
20260507094516 49 113 1.7 7.0 0.00 0.00 0.00 82 1015.5
20260507093516 48 113 1.7 6.1 0.00 0.00 0.00 83 1015.4
20260507092516 48 135 1.7 4.3 0.00 0.00 0.00 84 1015.4
20260507091516 48 135 1.7 4.3 0.00 0.00 0.00 84 1015.4
20260507090516 47 113 1.7 5.2 0.00 0.00 0.00 85 1015.3
20260507085516 47 135 1.7 6.1 0.00 0.00 0.00 85 1015.5
20260507084516 47 135 1.7 3.5 0.00 0.00 0.00 85 1015.4
20260507083516 47 135 1.7 4.3 0.00 0.00 0.00 85 1015.4
20260507082516 46 135 1.7 6.1 0.00 0.00 0.00 86 1015.3
20260507081516 46 135 1.7 4.3 0.00 0.00 0.00 86 1015.3
20260507080516 46 113 2.6 7.0 0.00 0.00 0.00 86 1015.4
20260507075516 46 135 1.7 7.0 0.00 0.00 0.00 86 1015.3
20260507074516 46 135 1.7 5.2 0.00 0.00 0.00 86 1015.4
20260507073536 46 135 1.7 7.0 0.00 0.00 0.00 86 1015.3
20260507072516 45 135 2.6 6.1 0.00 0.00 0.00 86 1015.3
20260507071516 45 135 1.7 4.3 0.00 0.00 0.00 86 1015.4
20260507070516 45 113 1.7 5.2 0.00 0.00 0.00 86 1015.2
20260507065516 45 135 1.7 4.3 0.00 0.00 0.00 86 1015.2
20260507064516 45 113 1.7 4.3 0.00 0.00 0.00 86 1015.2
20260507063516 45 135 0.9 3.5 0.00 0.00 0.00 86 1015.2
20260507062516 45 135 0.9 3.5 0.00 0.00 0.00 87 1015.2
20260507061656 45 113 0.9 3.5 0.00 0.00 0.00 86 1015.3
20260507060516 45 113 0.9 3.5 0.00 0.00 0.00 87 1015.1
20260507055516 45 113 0.9 4.3 0.00 0.00 0.00 86 1015.2
20260507054516 45 113 1.7 4.3 0.00 0.00 0.00 86 1015.0
20260507053536 45 135 0.9 2.6 0.00 0.00 0.00 86 1015.0
20260507052516 45 90 0.9 2.6 0.00 0.00 0.00 86 1015.1
20260507051516 45 135 0.9 2.6 0.00 0.00 0.00 86 1014.9
20260507050516 45 135 0.9 4.3 0.00 0.00 0.00 86 1014.9
20260507045536 45 0.0 1.7 0.00 0.00 0.00 86 1014.9
20260507044516 44 135 0.9 3.5 0.00 0.00 0.00 86 1014.9
20260507043516 44 113 0.9 4.3 0.00 0.00 0.00 86 1014.8
20260507042516 45 135 1.7 3.5 0.00 0.00 0.00 86 1015.0
20260507041516 45 225 0.9 4.3 0.00 0.00 0.00 86 1014.9
20260507040516 45 113 0.9 5.2 0.00 0.00 0.00 86 1014.9
20260507035516 45 135 0.9 5.2 0.00 0.00 0.00 85 1015.0
20260507034516 45 135 0.9 2.6 0.00 0.00 0.00 85 1015.0
20260507033516 45 135 0.9 2.6 0.00 0.00 0.00 85 1014.9
20260507032516 45 135 1.7 4.3 0.00 0.00 0.00 85 1014.9
20260507031515 45 135 0.9 3.5 0.00 0.00 0.00 85 1015.0
20260507030515 44 135 0.9 2.6 0.00 0.00 0.00 85 1015.0
20260507025556 44 135 2.6 5.2 0.00 0.00 0.00 85 1014.9
20260507024515 44 135 1.7 4.3 0.00 0.00 0.00 85 1015.1
20260507023515 44 135 0.9 3.5 0.00 0.00 0.00 85 1015.2
20260507022515 44 135 0.9 2.6 0.00 0.00 0.00 85 1015.2
20260507021515 44 158 0.9 2.6 0.00 0.00 0.00 85 1015.1
20260507020555 44 135 0.9 5.2 0.00 0.00 0.00 84 1015.1
20260507015535 45 158 0.9 1.7 0.00 0.00 0.00 84 1015.1
20260507014516 45 113 0.9 2.6 0.00 0.00 0.00 84 1015.3
20260507013515 45 113 0.9 4.3 0.00 0.00 0.00 84 1015.3
20260507012515 45 113 0.9 2.6 0.00 0.00 0.00 83 1015.3
20260507011516 45 135 0.9 2.6 0.00 0.00 0.00 83 1015.3
20260507010535 45 135 0.9 3.5 0.00 0.00 0.00 83 1015.3
20260507005515 45 135 0.9 5.2 0.00 0.00 0.00 83 1015.3
20260507004516 45 135 0.9 3.5 0.00 0.00 0.00 83 1015.5
20260507003535 45 0.0 2.6 0.00 0.00 0.00 82 1015.6
20260507002535 45 0.0 1.7 0.00 0.00 0.00 82 1015.5
20260507001515 46 113 0.9 1.7 0.00 0.00 0.00 81 1015.6
20260507000516 46 113 0.9 3.5 0.00 0.00 0.00 80 1015.6
20260506235515 46 135 1.7 5.2 0.00 0.00 0.00 80 1015.5
20260506234515 46 158 0.9 2.6 0.00 0.00 0.00 80 1015.4
20260506233515 46 135 0.9 7.0 0.00 0.00 0.00 81 1015.3
20260506232515 46 135 0.9 3.5 0.00 0.00 0.00 81 1015.4
20260506231515 46 135 0.9 3.5 0.00 0.00 0.00 80 1015.3
20260506230515 47 135 0.9 3.5 0.00 0.00 0.00 79 1015.3
20260506225535 47 135 0.9 4.3 0.00 0.00 0.00 79 1015.3
20260506224515 47 135 0.9 2.6 0.00 0.00 0.00 78 1015.4
20260506223515 47 0.0 1.7 0.00 0.00 0.00 77 1015.2